owner,sensor,date,latitude,longitude,vertical_datum,sea_water_temperature,qcFlag 
TABS,ioos:station:TABS:X:1,2017-09-01T00:00:00Z,27.0660,-96.3383,-2.0,27.96,11111222 
TABS,ioos:station:TABS:X:1,2017-09-01T00:30:00Z,27.0660,-96.3383,-2.0,27.96,11111222 
TABS,ioos:station:TABS:X:1,2017-09-01T01:00:00Z,27.0660,-96.3383,-2.0,27.79,11111222 
TABS,ioos:station:TABS:X:1,2017-09-01T01:30:00Z,27.0660,-96.3383,-2.0,27.66,11111222 
TABS,ioos:station:TABS:X:1,2017-09-01T02:00:00Z,27.0660,-96.3383,-2.0,27.46,11111222 
TABS,ioos:station:TABS:X:1,2017-09-01T02:30:00Z,27.0660,-96.3383,-2.0,27.24,11111222 
TABS,ioos:station:TABS:X:1,2017-09-01T03:00:00Z,27.0660,-96.3383,-2.0,27.2,11111222 
TABS,ioos:station:TABS:X:1,2017-09-01T03:30:00Z,27.0660,-96.3383,-2.0,27.07,11111222 
TABS,ioos:station:TABS:X:1,2017-09-01T04:00:00Z,27.0660,-96.3383,-2.0,27.13,11111222 
TABS,ioos:station:TABS:X:1,2017-09-01T04:30:00Z,27.0660,-96.3383,-2.0,27.06,11111222 
TABS,ioos:station:TABS:X:1,2017-09-01T05:00:00Z,27.0660,-96.3383,-2.0,27.05,11111222 
TABS,ioos:station:TABS:X:1,2017-09-01T05:30:00Z,27.0660,-96.3383,-2.0,27.02,11111222 
TABS,ioos:station:TABS:X:1,2017-09-01T06:00:00Z,27.0660,-96.3383,-2.0,27.0,11111222 
TABS,ioos:station:TABS:X:1,2017-09-01T06:30:00Z,27.0660,-96.3383,-2.0,27.01,11111222 
TABS,ioos:station:TABS:X:1,2017-09-01T07:00:00Z,27.0660,-96.3383,-2.0,26.95,11111222 
TABS,ioos:station:TABS:X:1,2017-09-01T07:30:00Z,27.0660,-96.3383,-2.0,26.83,11111222 
TABS,ioos:station:TABS:X:1,2017-09-01T08:00:00Z,27.0660,-96.3383,-2.0,26.77,11111222 
TABS,ioos:station:TABS:X:1,2017-09-01T08:30:00Z,27.0660,-96.3383,-2.0,26.75,11111222 
TABS,ioos:station:TABS:X:1,2017-09-01T09:00:00Z,27.0660,-96.3383,-2.0,26.64,11111222 
TABS,ioos:station:TABS:X:1,2017-09-01T09:30:00Z,27.0660,-96.3383,-2.0,26.64,11111222 
TABS,ioos:station:TABS:X:1,2017-09-01T10:00:00Z,27.0660,-96.3383,-2.0,26.7,11111222 
TABS,ioos:station:TABS:X:1,2017-09-01T10:30:00Z,27.0660,-96.3383,-2.0,26.72,11111222 
TABS,ioos:station:TABS:X:1,2017-09-01T11:00:00Z,27.0660,-96.3383,-2.0,26.66,11111222 
TABS,ioos:station:TABS:X:1,2017-09-01T11:30:00Z,27.0660,-96.3383,-2.0,26.61,11111222 
TABS,ioos:station:TABS:X:1,2017-09-01T12:00:00Z,27.0660,-96.3383,-2.0,26.52,11111222 
TABS,ioos:station:TABS:X:1,2017-09-01T12:30:00Z,27.0660,-96.3383,-2.0,26.48,11111222 
TABS,ioos:station:TABS:X:1,2017-09-01T13:00:00Z,27.0660,-96.3383,-2.0,26.44,11111222 
TABS,ioos:station:TABS:X:1,2017-09-01T13:30:00Z,27.0660,-96.3383,-2.0,26.41,11111222 
TABS,ioos:station:TABS:X:1,2017-09-01T14:00:00Z,27.0660,-96.3383,-2.0,26.37,11111222 
TABS,ioos:station:TABS:X:1,2017-09-01T14:30:00Z,27.0660,-96.3383,-2.0,26.37,11111222 
TABS,ioos:station:TABS:X:1,2017-09-01T15:00:00Z,27.0660,-96.3383,-2.0,26.35,11111222 
TABS,ioos:station:TABS:X:1,2017-09-01T15:30:00Z,27.0660,-96.3383,-2.0,26.51,11111222 
TABS,ioos:station:TABS:X:1,2017-09-01T16:00:00Z,27.0660,-96.3383,-2.0,26.59,11111222 
TABS,ioos:station:TABS:X:1,2017-09-01T16:30:00Z,27.0660,-96.3383,-2.0,26.62,11111222 
TABS,ioos:station:TABS:X:1,2017-09-01T17:00:00Z,27.0660,-96.3383,-2.0,26.81,11111222 
TABS,ioos:station:TABS:X:1,2017-09-01T17:30:00Z,27.0660,-96.3383,-2.0,27.09,11111222 
TABS,ioos:station:TABS:X:1,2017-09-01T18:00:00Z,27.0660,-96.3383,-2.0,27.22,11111222 
TABS,ioos:station:TABS:X:1,2017-09-01T18:30:00Z,27.0660,-96.3383,-2.0,27.35,11111222 
TABS,ioos:station:TABS:X:1,2017-09-01T19:00:00Z,27.0660,-96.3383,-2.0,27.4,11111222 
TABS,ioos:station:TABS:X:1,2017-09-01T19:30:00Z,27.0660,-96.3383,-2.0,27.39,11111222 
TABS,ioos:station:TABS:X:1,2017-09-01T20:00:00Z,27.0660,-96.3383,-2.0,27.35,11111222 
TABS,ioos:station:TABS:X:1,2017-09-01T20:30:00Z,27.0660,-96.3383,-2.0,27.33,11111222 
TABS,ioos:station:TABS:X:1,2017-09-01T21:00:00Z,27.0660,-96.3383,-2.0,27.29,11111222 
TABS,ioos:station:TABS:X:1,2017-09-01T21:30:00Z,27.0660,-96.3383,-2.0,27.56,11111222 
TABS,ioos:station:TABS:X:1,2017-09-01T22:00:00Z,27.0660,-96.3383,-2.0,27.41,11111222 
TABS,ioos:station:TABS:X:1,2017-09-01T22:30:00Z,27.0660,-96.3383,-2.0,27.32,11111222 
TABS,ioos:station:TABS:X:1,2017-09-01T23:00:00Z,27.0660,-96.3383,-2.0,27.41,11111222 
TABS,ioos:station:TABS:X:1,2017-09-01T23:30:00Z,27.0660,-96.3383,-2.0,27.48,11111222 
TABS,ioos:station:TABS:X:1,2017-09-02T00:00:00Z,27.0660,-96.3383,-2.0,27.73,11111222 
TABS,ioos:station:TABS:X:1,2017-09-02T00:30:00Z,27.0660,-96.3383,-2.0,28.1,11111222 
TABS,ioos:station:TABS:X:1,2017-09-02T01:00:00Z,27.0660,-96.3383,-2.0,28.41,11111222 
TABS,ioos:station:TABS:X:1,2017-09-02T01:30:00Z,27.0660,-96.3383,-2.0,28.48,11111222 
TABS,ioos:station:TABS:X:1,2017-09-02T02:00:00Z,27.0660,-96.3383,-2.0,28.79,11111222 
TABS,ioos:station:TABS:X:1,2017-09-02T02:30:00Z,27.0660,-96.3383,-2.0,29.17,11111222 
TABS,ioos:station:TABS:X:1,2017-09-02T03:00:00Z,27.0660,-96.3383,-2.0,29.37,11111222 
TABS,ioos:station:TABS:X:1,2017-09-02T03:30:00Z,27.0660,-96.3383,-2.0,29.4,11111222 
TABS,ioos:station:TABS:X:1,2017-09-02T04:00:00Z,27.0660,-96.3383,-2.0,29.34,11111222 
TABS,ioos:station:TABS:X:1,2017-09-02T04:30:00Z,27.0660,-96.3383,-2.0,29.28,11111222 
TABS,ioos:station:TABS:X:1,2017-09-02T05:00:00Z,27.0660,-96.3383,-2.0,29.2,11111222 
TABS,ioos:station:TABS:X:1,2017-09-02T05:30:00Z,27.0660,-96.3383,-2.0,29.22,11111222 
TABS,ioos:station:TABS:X:1,2017-09-02T06:00:00Z,27.0660,-96.3383,-2.0,29.33,11111222 
TABS,ioos:station:TABS:X:1,2017-09-02T06:30:00Z,27.0660,-96.3383,-2.0,29.4,11111222 
TABS,ioos:station:TABS:X:1,2017-09-02T07:00:00Z,27.0660,-96.3383,-2.0,29.44,11111222 
TABS,ioos:station:TABS:X:1,2017-09-02T07:30:00Z,27.0660,-96.3383,-2.0,29.43,11111222 
TABS,ioos:station:TABS:X:1,2017-09-02T08:00:00Z,27.0660,-96.3383,-2.0,29.39,11111222 
TABS,ioos:station:TABS:X:1,2017-09-02T08:30:00Z,27.0660,-96.3383,-2.0,29.35,11111222 
TABS,ioos:station:TABS:X:1,2017-09-02T09:00:00Z,27.0660,-96.3383,-2.0,29.28,11111222 
TABS,ioos:station:TABS:X:1,2017-09-02T09:30:00Z,27.0660,-96.3383,-2.0,29.22,11111222 
TABS,ioos:station:TABS:X:1,2017-09-02T10:00:00Z,27.0660,-96.3383,-2.0,29.14,11111222 
TABS,ioos:station:TABS:X:1,2017-09-02T10:30:00Z,27.0660,-96.3383,-2.0,29.09,11111222 
TABS,ioos:station:TABS:X:1,2017-09-02T11:00:00Z,27.0660,-96.3383,-2.0,29.04,11111222 
TABS,ioos:station:TABS:X:1,2017-09-02T11:30:00Z,27.0660,-96.3383,-2.0,29.0,11111222 
TABS,ioos:station:TABS:X:1,2017-09-02T12:00:00Z,27.0660,-96.3383,-2.0,28.96,11111222 
TABS,ioos:station:TABS:X:1,2017-09-02T12:30:00Z,27.0660,-96.3383,-2.0,28.93,11111222 
TABS,ioos:station:TABS:X:1,2017-09-02T13:00:00Z,27.0660,-96.3383,-2.0,28.92,11111222 
TABS,ioos:station:TABS:X:1,2017-09-02T13:30:00Z,27.0660,-96.3383,-2.0,28.9,11111222 
TABS,ioos:station:TABS:X:1,2017-09-02T14:00:00Z,27.0660,-96.3383,-2.0,28.89,11111222 
TABS,ioos:station:TABS:X:1,2017-09-02T14:30:00Z,27.0660,-96.3383,-2.0,28.92,11111222 
TABS,ioos:station:TABS:X:1,2017-09-02T15:00:00Z,27.0660,-96.3383,-2.0,28.92,11111222 
TABS,ioos:station:TABS:X:1,2017-09-02T15:30:00Z,27.0660,-96.3383,-2.0,28.95,11111222 
TABS,ioos:station:TABS:X:1,2017-09-02T16:00:00Z,27.0660,-96.3383,-2.0,28.99,11111222 
TABS,ioos:station:TABS:X:1,2017-09-02T16:30:00Z,27.0660,-96.3383,-2.0,29.04,11111222 
TABS,ioos:station:TABS:X:1,2017-09-02T17:00:00Z,27.0660,-96.3383,-2.0,29.11,11111222 
TABS,ioos:station:TABS:X:1,2017-09-02T17:30:00Z,27.0660,-96.3383,-2.0,29.14,11111222 
TABS,ioos:station:TABS:X:1,2017-09-02T18:00:00Z,27.0660,-96.3383,-2.0,29.3,11111222 
TABS,ioos:station:TABS:X:1,2017-09-02T18:30:00Z,27.0660,-96.3383,-2.0,29.35,11111222 
TABS,ioos:station:TABS:X:1,2017-09-02T19:00:00Z,27.0660,-96.3383,-2.0,29.41,11111222 
TABS,ioos:station:TABS:X:1,2017-09-02T19:30:00Z,27.0660,-96.3383,-2.0,29.38,11111222 
TABS,ioos:station:TABS:X:1,2017-09-02T20:00:00Z,27.0660,-96.3383,-2.0,29.41,11111222 
TABS,ioos:station:TABS:X:1,2017-09-02T20:30:00Z,27.0660,-96.3383,-2.0,29.43,11111222 
TABS,ioos:station:TABS:X:1,2017-09-02T21:00:00Z,27.0660,-96.3383,-2.0,29.42,11111222 
TABS,ioos:station:TABS:X:1,2017-09-02T21:30:00Z,27.0660,-96.3383,-2.0,29.39,11111222 
TABS,ioos:station:TABS:X:1,2017-09-02T22:00:00Z,27.0660,-96.3383,-2.0,29.39,11111222 
TABS,ioos:station:TABS:X:1,2017-09-02T22:30:00Z,27.0660,-96.3383,-2.0,29.37,11111222 
TABS,ioos:station:TABS:X:1,2017-09-02T23:00:00Z,27.0660,-96.3383,-2.0,29.36,11111222 
TABS,ioos:station:TABS:X:1,2017-09-02T23:30:00Z,27.0660,-96.3383,-2.0,29.35,11111222 
TABS,ioos:station:TABS:X:1,2017-09-03T00:00:00Z,27.0660,-96.3383,-2.0,29.33,11111222 
TABS,ioos:station:TABS:X:1,2017-09-03T00:30:00Z,27.0660,-96.3383,-2.0,29.28,11111222 
TABS,ioos:station:TABS:X:1,2017-09-03T01:00:00Z,27.0660,-96.3383,-2.0,29.26,11111222 
TABS,ioos:station:TABS:X:1,2017-09-03T01:30:00Z,27.0660,-96.3383,-2.0,29.24,11111222 
TABS,ioos:station:TABS:X:1,2017-09-03T02:00:00Z,27.0660,-96.3383,-2.0,29.23,11111222 
TABS,ioos:station:TABS:X:1,2017-09-03T02:30:00Z,27.0660,-96.3383,-2.0,29.19,11111222 
TABS,ioos:station:TABS:X:1,2017-09-03T03:00:00Z,27.0660,-96.3383,-2.0,29.17,11111222 
TABS,ioos:station:TABS:X:1,2017-09-03T03:30:00Z,27.0660,-96.3383,-2.0,29.13,11111222 
TABS,ioos:station:TABS:X:1,2017-09-03T04:00:00Z,27.0660,-96.3383,-2.0,29.1,11111222 
TABS,ioos:station:TABS:X:1,2017-09-03T04:30:00Z,27.0660,-96.3383,-2.0,29.08,11111222 
TABS,ioos:station:TABS:X:1,2017-09-03T05:00:00Z,27.0660,-96.3383,-2.0,29.05,11111222 
TABS,ioos:station:TABS:X:1,2017-09-03T05:30:00Z,27.0660,-96.3383,-2.0,29.07,11111222 
TABS,ioos:station:TABS:X:1,2017-09-03T06:00:00Z,27.0660,-96.3383,-2.0,28.99,11111222 
TABS,ioos:station:TABS:X:1,2017-09-03T06:30:00Z,27.0660,-96.3383,-2.0,28.92,11111222 
TABS,ioos:station:TABS:X:1,2017-09-03T07:00:00Z,27.0660,-96.3383,-2.0,28.86,11111222 
TABS,ioos:station:TABS:X:1,2017-09-03T07:30:00Z,27.0660,-96.3383,-2.0,28.83,11111222 
TABS,ioos:station:TABS:X:1,2017-09-03T08:00:00Z,27.0660,-96.3383,-2.0,28.76,11111222 
TABS,ioos:station:TABS:X:1,2017-09-03T08:30:00Z,27.0660,-96.3383,-2.0,28.7,11111222 
TABS,ioos:station:TABS:X:1,2017-09-03T09:00:00Z,27.0660,-96.3383,-2.0,28.63,11111222 
TABS,ioos:station:TABS:X:1,2017-09-03T09:30:00Z,27.0660,-96.3383,-2.0,28.57,11111222 
TABS,ioos:station:TABS:X:1,2017-09-03T10:00:00Z,27.0660,-96.3383,-2.0,28.53,11111222 
TABS,ioos:station:TABS:X:1,2017-09-03T10:30:00Z,27.0660,-96.3383,-2.0,28.49,11111222 
TABS,ioos:station:TABS:X:1,2017-09-03T11:00:00Z,27.0660,-96.3383,-2.0,28.44,11111222 
TABS,ioos:station:TABS:X:1,2017-09-03T11:30:00Z,27.0660,-96.3383,-2.0,28.4,11111222 
TABS,ioos:station:TABS:X:1,2017-09-03T12:00:00Z,27.0660,-96.3383,-2.0,28.39,11111222 
TABS,ioos:station:TABS:X:1,2017-09-03T12:30:00Z,27.0660,-96.3383,-2.0,28.37,11111222 
TABS,ioos:station:TABS:X:1,2017-09-03T13:00:00Z,27.0660,-96.3383,-2.0,28.37,11111222 
TABS,ioos:station:TABS:X:1,2017-09-03T13:30:00Z,27.0660,-96.3383,-2.0,28.37,11111222 
TABS,ioos:station:TABS:X:1,2017-09-03T14:00:00Z,27.0660,-96.3383,-2.0,28.37,11111222 
TABS,ioos:station:TABS:X:1,2017-09-03T14:30:00Z,27.0660,-96.3383,-2.0,28.38,11111222 
TABS,ioos:station:TABS:X:1,2017-09-03T15:00:00Z,27.0660,-96.3383,-2.0,28.4,11111222 
TABS,ioos:station:TABS:X:1,2017-09-03T15:30:00Z,27.0660,-96.3383,-2.0,28.42,11111222 
TABS,ioos:station:TABS:X:1,2017-09-03T16:00:00Z,27.0660,-96.3383,-2.0,28.42,11111222 
TABS,ioos:station:TABS:X:1,2017-09-03T16:30:00Z,27.0660,-96.3383,-2.0,28.43,11111222 
TABS,ioos:station:TABS:X:1,2017-09-03T17:00:00Z,27.0660,-96.3383,-2.0,28.42,11111222 
TABS,ioos:station:TABS:X:1,2017-09-03T17:30:00Z,27.0660,-96.3383,-2.0,28.41,11111222 
TABS,ioos:station:TABS:X:1,2017-09-03T18:00:00Z,27.0660,-96.3383,-2.0,28.38,11111222 
TABS,ioos:station:TABS:X:1,2017-09-03T18:30:00Z,27.0660,-96.3383,-2.0,28.39,11111222 
TABS,ioos:station:TABS:X:1,2017-09-03T19:00:00Z,27.0660,-96.3383,-2.0,28.31,11111222 
TABS,ioos:station:TABS:X:1,2017-09-03T19:30:00Z,27.0660,-96.3383,-2.0,28.3,11111222 
TABS,ioos:station:TABS:X:1,2017-09-03T20:00:00Z,27.0660,-96.3383,-2.0,28.29,11111222 
TABS,ioos:station:TABS:X:1,2017-09-03T20:30:00Z,27.0660,-96.3383,-2.0,28.31,11111222 
TABS,ioos:station:TABS:X:1,2017-09-03T21:00:00Z,27.0660,-96.3383,-2.0,28.36,11111222 
TABS,ioos:station:TABS:X:1,2017-09-03T21:30:00Z,27.0660,-96.3383,-2.0,28.57,11111222 
TABS,ioos:station:TABS:X:1,2017-09-03T22:00:00Z,27.0660,-96.3383,-2.0,28.7,11111222 
TABS,ioos:station:TABS:X:1,2017-09-03T22:30:00Z,27.0660,-96.3383,-2.0,28.77,11111222 
TABS,ioos:station:TABS:X:1,2017-09-03T23:00:00Z,27.0660,-96.3383,-2.0,28.83,11111222 
TABS,ioos:station:TABS:X:1,2017-09-03T23:30:00Z,27.0660,-96.3383,-2.0,28.87,11111222 
TABS,ioos:station:TABS:X:1,2017-09-04T00:00:00Z,27.0660,-96.3383,-2.0,28.89,11111222 
TABS,ioos:station:TABS:X:1,2017-09-04T00:30:00Z,27.0660,-96.3383,-2.0,28.91,11111222 
TABS,ioos:station:TABS:X:1,2017-09-04T01:00:00Z,27.0660,-96.3383,-2.0,28.91,11111222 
TABS,ioos:station:TABS:X:1,2017-09-04T01:30:00Z,27.0660,-96.3383,-2.0,28.89,11111222 
TABS,ioos:station:TABS:X:1,2017-09-04T02:00:00Z,27.0660,-96.3383,-2.0,28.43,11111222 
TABS,ioos:station:TABS:X:1,2017-09-04T02:30:00Z,27.0660,-96.3383,-2.0,28.16,11111222 
TABS,ioos:station:TABS:X:1,2017-09-04T03:00:00Z,27.0660,-96.3383,-2.0,28.07,11111222 
TABS,ioos:station:TABS:X:1,2017-09-04T03:30:00Z,27.0660,-96.3383,-2.0,28.0,11111222 
TABS,ioos:station:TABS:X:1,2017-09-04T04:00:00Z,27.0660,-96.3383,-2.0,27.95,11111222 
TABS,ioos:station:TABS:X:1,2017-09-04T04:30:00Z,27.0660,-96.3383,-2.0,27.84,11111222 
TABS,ioos:station:TABS:X:1,2017-09-04T05:00:00Z,27.0660,-96.3383,-2.0,27.82,11111222 
TABS,ioos:station:TABS:X:1,2017-09-04T05:30:00Z,27.0660,-96.3383,-2.0,27.8,11111222 
TABS,ioos:station:TABS:X:1,2017-09-04T06:00:00Z,27.0660,-96.3383,-2.0,27.78,11111222 
TABS,ioos:station:TABS:X:1,2017-09-04T06:30:00Z,27.0660,-96.3383,-2.0,27.74,11111222 
TABS,ioos:station:TABS:X:1,2017-09-04T07:00:00Z,27.0660,-96.3383,-2.0,27.68,11111222 
TABS,ioos:station:TABS:X:1,2017-09-04T07:30:00Z,27.0660,-96.3383,-2.0,27.64,11111222 
TABS,ioos:station:TABS:X:1,2017-09-04T08:00:00Z,27.0660,-96.3383,-2.0,27.64,11111222 
TABS,ioos:station:TABS:X:1,2017-09-04T08:30:00Z,27.0660,-96.3383,-2.0,27.61,11111222 
TABS,ioos:station:TABS:X:1,2017-09-04T09:00:00Z,27.0660,-96.3383,-2.0,27.56,11111222 
TABS,ioos:station:TABS:X:1,2017-09-04T09:30:00Z,27.0660,-96.3383,-2.0,27.53,11111222 
TABS,ioos:station:TABS:X:1,2017-09-04T10:00:00Z,27.0660,-96.3383,-2.0,27.52,11111222 
TABS,ioos:station:TABS:X:1,2017-09-04T10:30:00Z,27.0660,-96.3383,-2.0,27.52,11111222 
TABS,ioos:station:TABS:X:1,2017-09-04T11:00:00Z,27.0660,-96.3383,-2.0,27.49,11111222 
TABS,ioos:station:TABS:X:1,2017-09-04T11:30:00Z,27.0660,-96.3383,-2.0,27.49,11111222 
TABS,ioos:station:TABS:X:1,2017-09-04T12:00:00Z,27.0660,-96.3383,-2.0,27.47,11111222 
TABS,ioos:station:TABS:X:1,2017-09-04T12:30:00Z,27.0660,-96.3383,-2.0,27.47,11111222 
TABS,ioos:station:TABS:X:1,2017-09-04T13:00:00Z,27.0660,-96.3383,-2.0,27.49,11111222 
TABS,ioos:station:TABS:X:1,2017-09-04T13:30:00Z,27.0660,-96.3383,-2.0,27.53,11111222 
TABS,ioos:station:TABS:X:1,2017-09-04T14:00:00Z,27.0660,-96.3383,-2.0,27.54,11111222 
TABS,ioos:station:TABS:X:1,2017-09-04T14:30:00Z,27.0660,-96.3383,-2.0,27.55,11111222 
TABS,ioos:station:TABS:X:1,2017-09-04T15:00:00Z,27.0660,-96.3383,-2.0,27.59,11111222 
TABS,ioos:station:TABS:X:1,2017-09-04T15:30:00Z,27.0660,-96.3383,-2.0,27.62,11111222 
TABS,ioos:station:TABS:X:1,2017-09-04T16:00:00Z,27.0660,-96.3383,-2.0,27.66,11111222 
TABS,ioos:station:TABS:X:1,2017-09-04T16:30:00Z,27.0660,-96.3383,-2.0,27.7,11111222 
TABS,ioos:station:TABS:X:1,2017-09-04T17:00:00Z,27.0660,-96.3383,-2.0,27.73,11111222 
TABS,ioos:station:TABS:X:1,2017-09-04T17:30:00Z,27.0660,-96.3383,-2.0,27.78,11111222 
TABS,ioos:station:TABS:X:1,2017-09-04T18:00:00Z,27.0660,-96.3383,-2.0,27.79,11111222 
TABS,ioos:station:TABS:X:1,2017-09-04T18:30:00Z,27.0660,-96.3383,-2.0,27.83,11111222 
TABS,ioos:station:TABS:X:1,2017-09-04T19:00:00Z,27.0660,-96.3383,-2.0,27.99,11111222 
TABS,ioos:station:TABS:X:1,2017-09-04T19:30:00Z,27.0660,-96.3383,-2.0,28.02,11111222 
TABS,ioos:station:TABS:X:1,2017-09-04T20:00:00Z,27.0660,-96.3383,-2.0,28.04,11111222 
TABS,ioos:station:TABS:X:1,2017-09-04T20:30:00Z,27.0660,-96.3383,-2.0,28.13,11111222 
TABS,ioos:station:TABS:X:1,2017-09-04T21:00:00Z,27.0660,-96.3383,-2.0,28.21,11111222 
TABS,ioos:station:TABS:X:1,2017-09-04T21:30:00Z,27.0660,-96.3383,-2.0,28.15,11111222 
TABS,ioos:station:TABS:X:1,2017-09-04T22:00:00Z,27.0660,-96.3383,-2.0,28.09,11111222 
TABS,ioos:station:TABS:X:1,2017-09-04T22:30:00Z,27.0660,-96.3383,-2.0,28.13,11111222 
TABS,ioos:station:TABS:X:1,2017-09-04T23:00:00Z,27.0660,-96.3383,-2.0,28.15,11111222 
TABS,ioos:station:TABS:X:1,2017-09-04T23:30:00Z,27.0660,-96.3383,-2.0,28.25,11111222 
TABS,ioos:station:TABS:X:1,2017-09-05T00:00:00Z,27.0660,-96.3383,-2.0,28.33,11111222 
TABS,ioos:station:TABS:X:1,2017-09-05T00:30:00Z,27.0660,-96.3383,-2.0,28.25,11111222 
TABS,ioos:station:TABS:X:1,2017-09-05T01:00:00Z,27.0660,-96.3383,-2.0,28.27,11111222 
TABS,ioos:station:TABS:X:1,2017-09-05T01:30:00Z,27.0660,-96.3383,-2.0,28.27,11111222 
TABS,ioos:station:TABS:X:1,2017-09-05T02:00:00Z,27.0660,-96.3383,-2.0,28.24,11111222 
TABS,ioos:station:TABS:X:1,2017-09-05T02:30:00Z,27.0660,-96.3383,-2.0,28.27,11111222 
TABS,ioos:station:TABS:X:1,2017-09-05T03:00:00Z,27.0660,-96.3383,-2.0,28.17,11111222 
TABS,ioos:station:TABS:X:1,2017-09-05T03:30:00Z,27.0660,-96.3383,-2.0,28.16,11111222 
TABS,ioos:station:TABS:X:1,2017-09-05T04:00:00Z,27.0660,-96.3383,-2.0,28.08,11111222 
TABS,ioos:station:TABS:X:1,2017-09-05T04:30:00Z,27.0660,-96.3383,-2.0,27.96,11111222 
TABS,ioos:station:TABS:X:1,2017-09-05T05:00:00Z,27.0660,-96.3383,-2.0,27.88,11111222 
TABS,ioos:station:TABS:X:1,2017-09-05T05:30:00Z,27.0660,-96.3383,-2.0,27.91,11111222 
TABS,ioos:station:TABS:X:1,2017-09-05T06:00:00Z,27.0660,-96.3383,-2.0,27.89,11111222 
TABS,ioos:station:TABS:X:1,2017-09-05T06:30:00Z,27.0660,-96.3383,-2.0,27.79,11111222 
TABS,ioos:station:TABS:X:1,2017-09-05T07:00:00Z,27.0660,-96.3383,-2.0,27.73,11111222 
TABS,ioos:station:TABS:X:1,2017-09-05T07:30:00Z,27.0660,-96.3383,-2.0,27.7,11111222 
TABS,ioos:station:TABS:X:1,2017-09-05T08:00:00Z,27.0660,-96.3383,-2.0,27.68,11111222 
TABS,ioos:station:TABS:X:1,2017-09-05T08:30:00Z,27.0660,-96.3383,-2.0,27.64,11111222 
TABS,ioos:station:TABS:X:1,2017-09-05T09:00:00Z,27.0660,-96.3383,-2.0,27.61,11111222 
TABS,ioos:station:TABS:X:1,2017-09-05T09:30:00Z,27.0660,-96.3383,-2.0,27.59,11111222 
TABS,ioos:station:TABS:X:1,2017-09-05T10:00:00Z,27.0660,-96.3383,-2.0,27.56,11111222 
TABS,ioos:station:TABS:X:1,2017-09-05T10:30:00Z,27.0660,-96.3383,-2.0,27.55,11111222 
TABS,ioos:station:TABS:X:1,2017-09-05T11:00:00Z,27.0660,-96.3383,-2.0,27.53,11111222 
TABS,ioos:station:TABS:X:1,2017-09-05T11:30:00Z,27.0660,-96.3383,-2.0,27.55,11111222 
TABS,ioos:station:TABS:X:1,2017-09-05T12:00:00Z,27.0660,-96.3383,-2.0,27.53,11111222 
TABS,ioos:station:TABS:X:1,2017-09-05T12:30:00Z,27.0660,-96.3383,-2.0,27.52,11111222 
TABS,ioos:station:TABS:X:1,2017-09-05T13:00:00Z,27.0660,-96.3383,-2.0,27.51,11111222 
TABS,ioos:station:TABS:X:1,2017-09-05T13:30:00Z,27.0660,-96.3383,-2.0,27.54,11111222 
TABS,ioos:station:TABS:X:1,2017-09-05T14:00:00Z,27.0660,-96.3383,-2.0,27.54,11111222 
TABS,ioos:station:TABS:X:1,2017-09-05T14:30:00Z,27.0660,-96.3383,-2.0,27.54,11111222 
TABS,ioos:station:TABS:X:1,2017-09-05T15:00:00Z,27.0660,-96.3383,-2.0,27.51,11111222 
TABS,ioos:station:TABS:X:1,2017-09-05T15:30:00Z,27.0660,-96.3383,-2.0,27.62,11111222 
TABS,ioos:station:TABS:X:1,2017-09-05T16:00:00Z,27.0660,-96.3383,-2.0,27.7,11111222 
TABS,ioos:station:TABS:X:1,2017-09-05T16:30:00Z,27.0660,-96.3383,-2.0,27.74,11111222 
TABS,ioos:station:TABS:X:1,2017-09-05T17:00:00Z,27.0660,-96.3383,-2.0,27.78,11111222 
TABS,ioos:station:TABS:X:1,2017-09-05T17:30:00Z,27.0660,-96.3383,-2.0,27.78,11111222 
TABS,ioos:station:TABS:X:1,2017-09-05T18:00:00Z,27.0660,-96.3383,-2.0,27.76,11111222 
TABS,ioos:station:TABS:X:1,2017-09-05T18:30:00Z,27.0660,-96.3383,-2.0,27.75,11111222 
TABS,ioos:station:TABS:X:1,2017-09-05T19:00:00Z,27.0660,-96.3383,-2.0,27.74,11111222 
TABS,ioos:station:TABS:X:1,2017-09-05T19:30:00Z,27.0660,-96.3383,-2.0,27.71,11111222 
TABS,ioos:station:TABS:X:1,2017-09-05T20:00:00Z,27.0660,-96.3383,-2.0,27.74,11111222 
TABS,ioos:station:TABS:X:1,2017-09-05T20:30:00Z,27.0660,-96.3383,-2.0,27.76,11111222 
TABS,ioos:station:TABS:X:1,2017-09-05T21:00:00Z,27.0660,-96.3383,-2.0,27.78,11111222 
TABS,ioos:station:TABS:X:1,2017-09-05T21:30:00Z,27.0660,-96.3383,-2.0,27.73,11111222 
TABS,ioos:station:TABS:X:1,2017-09-05T22:00:00Z,27.0660,-96.3383,-2.0,27.69,11111222 
TABS,ioos:station:TABS:X:1,2017-09-05T22:30:00Z,27.0660,-96.3383,-2.0,27.65,11111222 
TABS,ioos:station:TABS:X:1,2017-09-05T23:00:00Z,27.0660,-96.3383,-2.0,27.55,11111222 
TABS,ioos:station:TABS:X:1,2017-09-05T23:30:00Z,27.0660,-96.3383,-2.0,27.52,11111222 
TABS,ioos:station:TABS:X:1,2017-09-06T00:00:00Z,27.0660,-96.3383,-2.0,27.55,11111222 
TABS,ioos:station:TABS:X:1,2017-09-06T00:30:00Z,27.0660,-96.3383,-2.0,27.61,11111222 
TABS,ioos:station:TABS:X:1,2017-09-06T01:00:00Z,27.0660,-96.3383,-2.0,27.64,11111222 
TABS,ioos:station:TABS:X:1,2017-09-06T01:30:00Z,27.0660,-96.3383,-2.0,27.67,11111222 
TABS,ioos:station:TABS:X:1,2017-09-06T02:00:00Z,27.0660,-96.3383,-2.0,27.67,11111222 
TABS,ioos:station:TABS:X:1,2017-09-06T02:30:00Z,27.0660,-96.3383,-2.0,27.71,11111222 
TABS,ioos:station:TABS:X:1,2017-09-06T03:00:00Z,27.0660,-96.3383,-2.0,27.73,11111222 
TABS,ioos:station:TABS:X:1,2017-09-06T03:30:00Z,27.0660,-96.3383,-2.0,27.74,11111222 
TABS,ioos:station:TABS:X:1,2017-09-06T04:00:00Z,27.0660,-96.3383,-2.0,27.75,11111222 
TABS,ioos:station:TABS:X:1,2017-09-06T04:30:00Z,27.0660,-96.3383,-2.0,27.76,11111222 
TABS,ioos:station:TABS:X:1,2017-09-06T05:00:00Z,27.0660,-96.3383,-2.0,27.75,11111222 
TABS,ioos:station:TABS:X:1,2017-09-06T05:30:00Z,27.0660,-96.3383,-2.0,27.74,11111222 
TABS,ioos:station:TABS:X:1,2017-09-06T06:00:00Z,27.0660,-96.3383,-2.0,27.73,11111222 
TABS,ioos:station:TABS:X:1,2017-09-06T06:30:00Z,27.0660,-96.3383,-2.0,27.7,11111222 
TABS,ioos:station:TABS:X:1,2017-09-06T07:00:00Z,27.0660,-96.3383,-2.0,27.67,11111222 
TABS,ioos:station:TABS:X:1,2017-09-06T07:30:00Z,27.0660,-96.3383,-2.0,27.61,11111222 
TABS,ioos:station:TABS:X:1,2017-09-06T08:00:00Z,27.0660,-96.3383,-2.0,27.61,11111222 
TABS,ioos:station:TABS:X:1,2017-09-06T08:30:00Z,27.0660,-96.3383,-2.0,27.59,11111222 
TABS,ioos:station:TABS:X:1,2017-09-06T09:00:00Z,27.0660,-96.3383,-2.0,27.6,11111222 
TABS,ioos:station:TABS:X:1,2017-09-06T09:30:00Z,27.0660,-96.3383,-2.0,27.63,11111222 
TABS,ioos:station:TABS:X:1,2017-09-06T10:00:00Z,27.0660,-96.3383,-2.0,27.66,11111222 
TABS,ioos:station:TABS:X:1,2017-09-06T10:30:00Z,27.0660,-96.3383,-2.0,27.66,11111222 
TABS,ioos:station:TABS:X:1,2017-09-06T11:00:00Z,27.0660,-96.3383,-2.0,27.68,11111222 
TABS,ioos:station:TABS:X:1,2017-09-06T11:30:00Z,27.0660,-96.3383,-2.0,27.69,11111222 
TABS,ioos:station:TABS:X:1,2017-09-06T12:00:00Z,27.0660,-96.3383,-2.0,27.7,11111222 
TABS,ioos:station:TABS:X:1,2017-09-06T12:30:00Z,27.0660,-96.3383,-2.0,27.71,11111222 
TABS,ioos:station:TABS:X:1,2017-09-06T13:00:00Z,27.0660,-96.3383,-2.0,27.71,11111222 
TABS,ioos:station:TABS:X:1,2017-09-06T13:30:00Z,27.0660,-96.3383,-2.0,27.72,11111222 
TABS,ioos:station:TABS:X:1,2017-09-06T14:00:00Z,27.0660,-96.3383,-2.0,27.75,11111222 
TABS,ioos:station:TABS:X:1,2017-09-06T14:30:00Z,27.0660,-96.3383,-2.0,27.77,11111222 
TABS,ioos:station:TABS:X:1,2017-09-06T15:00:00Z,27.0660,-96.3383,-2.0,27.81,11111222 
TABS,ioos:station:TABS:X:1,2017-09-06T15:30:00Z,27.0660,-96.3383,-2.0,27.79,11111222 
TABS,ioos:station:TABS:X:1,2017-09-06T16:00:00Z,27.0660,-96.3383,-2.0,27.82,11111222 
TABS,ioos:station:TABS:X:1,2017-09-06T16:30:00Z,27.0660,-96.3383,-2.0,27.89,11111222 
TABS,ioos:station:TABS:X:1,2017-09-06T17:00:00Z,27.0660,-96.3383,-2.0,27.96,11111222 
TABS,ioos:station:TABS:X:1,2017-09-06T17:30:00Z,27.0660,-96.3383,-2.0,28.03,11111222 
TABS,ioos:station:TABS:X:1,2017-09-06T18:00:00Z,27.0660,-96.3383,-2.0,28.07,11111222 
TABS,ioos:station:TABS:X:1,2017-09-06T18:30:00Z,27.0660,-96.3383,-2.0,28.08,11111222 